Cut Bank, MT

7:47 AM MDT on October 23, 2019 (GMT -0600)
Cut Bank Municipal

Weather History for KCTB - August, 2019

Change the Weather History Date:

Saturday, August 10, 2019

  Actual Average Record
Temperature  
Mean Temperature 55 °F 65 °F  
Max Temperature 59 °F 81 °F 102 °F (2018)
Min Temperature 51 °F 50 °F 32 °F (1926)
Degree Days  
Heating Degree Days 10 3  
Month to date heating degree days 12 21  
Since 1 June heating degree days 327 340  
Since 1 July heating degree days 105 107  
Cooling Degree Days 0 3  
Month to date cooling degree days 42 30  
Year to date cooling degree days 95 119  
Since 1 June cooling degree days 95 117  
Growing Degree Days 5 (Base 50)    
Moisture  
Dew Point 52 °F    
Average Humidity 91    
Maximum Humidity 100    
Minimum Humidity 77    
Precipitation  
Precipitation 0.13 in 0.03 in 1.01 in (1957)
Month to date precipitation 0.15 0.36  
Year to date precipitation 7.56 7.83  
Snow  
Snow - - - ()
Snow Depth 0.00 in    
Sea Level Pressure  
Sea Level Pressure 30.09 in    
Wind  
Wind Speed 8 mph ()    
Max Wind Speed 16 mph    
Max Gust Speed 19 mph    
Visibility 5.9 miles    
Events Rain    
T = Trace of Precipitation, MM = Missing Value Source: Averaged Metar Reports

Daily Weather History Graph

Daily Weather History Graph

Search for Another Location

Airport or City:

Astronomy

Aug. 10, 2019 Rise Set
Actual Time 6:15 AM MDT 8:53 PM MDT
Civil Twilight 5:40 AM MDT 9:28 PM MDT
Nautical Twilight 4:54 AM MDT 10:13 PM MDT
Astronomical Twilight 4:01 AM MDT 11:05 PM MDT
Moon 5:49 PM MDT (8/10) 1:47 AM MDT (8/10)
Length of Visible Light 15h 48m
Length of Day
14h 37m
Waxing Gibbous, 80% of the Moon is Illuminated
Aug 10
Waxing Gibbous
Aug 15
Full
Aug 23
Last Quarter
Aug 30
New
Sep 5
First Quarter

Hourly Weather History & Observations

Time (MDT) Temp. Dew Point Humidity Pressure Visibility Wind Dir Wind Speed Gust Speed Precip Events Conditions
12:56 AM 57.0 °F 51.1 °F 81% 30.00 in 10.0 mi North 9.2 mph - N/A   Overcast
1:56 AM 55.9 °F 51.1 °F 84% 30.00 in 10.0 mi North 11.5 mph - N/A   Overcast
2:11 AM 55.9 °F 51.1 °F 84% 30.06 in 10.0 mi NNE 9.2 mph - 0.00 in   Overcast
2:56 AM 55.0 °F 52.0 °F 89% 30.00 in 7.0 mi NNE 9.2 mph - 0.02 in Rain Light Rain
3:39 AM 54.0 °F 52.0 °F 93% 30.06 in 4.0 mi NNE 11.5 mph - 0.02 in Rain Rain
3:56 AM 54.0 °F 52.0 °F 93% 30.01 in 4.0 mi NNE 10.4 mph - 0.04 in Rain Light Rain
4:13 AM 54.0 °F 52.0 °F 93% 30.07 in 6.0 mi North 8.1 mph - 0.01 in Rain Light Rain
4:56 AM 53.1 °F 51.1 °F 93% 30.02 in 6.0 mi North 16.1 mph - 0.02 in Rain Light Rain
5:56 AM 52.0 °F 51.1 °F 97% 30.04 in 7.0 mi North 12.7 mph - 0.02 in   Overcast
6:56 AM 52.0 °F 50.0 °F 93% 30.07 in 7.0 mi North 11.5 mph - N/A   Overcast
7:14 AM 52.0 °F 50.0 °F 93% 30.12 in 4.0 mi NNE 10.4 mph - N/A   Overcast
7:56 AM 52.0 °F 50.0 °F 93% 30.10 in 3.0 mi North 12.7 mph - N/A   Overcast
8:13 AM 52.0 °F 50.0 °F 93% 30.13 in 2.5 mi NNE 12.7 mph - N/A   Overcast
8:38 AM 52.0 °F 50.0 °F 93% 30.13 in 3.0 mi North 15.0 mph - N/A   Overcast
8:56 AM 52.0 °F 50.0 °F 93% 30.11 in 5.0 mi North 11.5 mph - N/A   Overcast
9:20 AM 52.0 °F 50.0 °F 93% 30.13 in 5.0 mi NNE 9.2 mph - N/A   Overcast
9:56 AM 52.0 °F 50.0 °F 93% 30.11 in 5.0 mi NNE 9.2 mph - N/A   Overcast
10:36 AM 52.0 °F 50.0 °F 93% 30.14 in 1.8 mi NNE 5.8 mph - 0.00 in Rain Light Rain
10:52 AM 53.6 °F 51.8 °F 94% 30.13 in 2.0 mi NNE 10.4 mph - 0.01 in Rain Light Rain
10:56 AM 53.1 °F 51.1 °F 93% 30.10 in 2.5 mi NNE 10.4 mph - 0.01 in Rain Light Rain
11:04 AM 54.0 °F 51.1 °F 90% 30.13 in 3.0 mi NNE 11.5 mph - 0.00 in   Overcast
11:56 AM 53.1 °F 50.0 °F 89% 30.12 in 7.0 mi North 6.9 mph - 0.00 in   Overcast
12:56 PM 53.1 °F 50.0 °F 89% 30.11 in 4.0 mi North 4.6 mph - N/A   Overcast
1:56 PM 54.0 °F 50.0 °F 86% 30.11 in 9.0 mi North 8.1 mph - N/A   Overcast
2:56 PM 55.0 °F 50.0 °F 83% 30.10 in 10.0 mi North 6.9 mph - N/A   Overcast
3:23 PM 55.9 °F 50.0 °F 80% 30.12 in 10.0 mi Variable 3.5 mph - N/A   Overcast
3:56 PM 57.0 °F 50.0 °F 77% 30.08 in 10.0 mi NE 5.8 mph - N/A   Overcast
4:56 PM 57.9 °F 51.1 °F 78% 30.06 in 10.0 mi ENE 4.6 mph - N/A   Overcast
5:56 PM 57.9 °F 52.0 °F 81% 30.06 in 10.0 mi East 8.1 mph - N/A   Overcast
6:56 PM 57.9 °F 51.1 °F 78% 30.06 in 10.0 mi East 4.6 mph - N/A   Overcast
7:30 PM 55.9 °F 53.1 °F 90% 30.10 in 6.0 mi South 4.6 mph - N/A   Overcast
7:39 PM 55.9 °F 53.1 °F 90% 30.11 in 2.5 mi SSE 8.1 mph - N/A   Overcast
7:47 PM 55.9 °F 54.0 °F 93% 30.11 in 1.2 mi SE 6.9 mph - 0.01 in Rain Light Rain
7:56 PM 55.9 °F 54.0 °F 93% 30.09 in 1.2 mi SE 5.8 mph - 0.01 in   Overcast
8:05 PM 55.9 °F 55.0 °F 97% 30.10 in 1.2 mi ESE 5.8 mph - N/A   Overcast
8:41 PM 55.0 °F 54.0 °F 96% 30.10 in 2.5 mi East 4.6 mph - N/A   Overcast
8:48 PM 55.9 °F 54.0 °F 93% 30.10 in 3.0 mi East 5.8 mph - N/A   Overcast
8:56 PM 55.0 °F 54.0 °F 96% 30.08 in 2.0 mi ENE 10.4 mph - 0.00 in Rain Light Rain
9:11 PM 55.0 °F 54.0 °F 96% 30.11 in 3.0 mi ESE 5.8 mph - 0.00 in   Overcast
9:18 PM 55.0 °F 53.1 °F 93% 30.11 in 2.0 mi ESE 5.8 mph - 0.00 in   Overcast
9:25 PM 55.0 °F 53.1 °F 93% 30.12 in 2.5 mi SE 6.9 mph - 0.00 in   Overcast
9:38 PM 55.0 °F 53.1 °F 93% 30.12 in 5.0 mi ESE 8.1 mph - 0.00 in   Overcast
9:56 PM 55.0 °F 53.1 °F 93% 30.09 in 10.0 mi ESE 5.8 mph - 0.01 in   Overcast
10:04 PM 55.0 °F 53.1 °F 93% 30.10 in 10.0 mi ESE 4.6 mph - N/A   Overcast
10:11 PM 55.0 °F 53.1 °F 93% 30.10 in 10.0 mi ESE 3.5 mph - N/A   Overcast
10:56 PM 54.0 °F 52.0 °F 93% 30.05 in 10.0 mi ENE 6.9 mph - N/A   Mostly Cloudy
11:26 PM 54.0 °F 52.0 °F 93% 30.09 in 10.0 mi ESE 5.8 mph - N/A   Mostly Cloudy
11:35 PM 54.0 °F 52.0 °F 93% 30.10 in 10.0 mi SE 8.1 mph - N/A   Mostly Cloudy
11:56 PM 54.0 °F 53.1 °F 97% 30.08 in 10.0 mi SE 8.1 mph - N/A   Overcast